Regional Weather Roundup
Issued by NWS

Home | Current Version | Previous Version | Graphics & Text | Print | Product List | Glossary Off
Versions: 1 2 3 4 5 6 7 8 9 10 11 12 13 14 15 16 17 18 19 20 21 22 23 24 25 26 27 28 29 30 31 32 33 34 35 36 37 38 39 40 41 42 43 44 45 46 47 48 49 50

346
ASUS45 KBOU 222107
RWRCO

WEATHER ROUNDUP FOR COLORADO
NATIONAL WEATHER SERVICE DENVER/BOULDER CO
300 PM MDT MON MAY 22 2017

NOTE: "FAIR" INDICATES FEW OR NO CLOUDS BELOW 12000 FEET WITH NO
SIGNIFICANT WEATHER AND/OR OBSTRUCTIONS TO VISIBILITY.

COZ001>005-013-030-031-222200-
...NORTHWEST COLORADO...

CITY           SKY/WX    TMP DP  RH WIND       PRES   REMARKS
CRAIG          CLOUDY    55  40  56 S10       30.19F
HAYDEN         PTSUNNY   48  36  61 E7        30.20F
MEEKER         PTSUNNY   62  31  31 W10G20    30.19F
RABBIT EARS PA CLOUDY    34  32  93 W10G24    30.31F WCI  26
STEAMBOAT SPGS CLOUDY    48  36  64 W12G17    30.22R
WALDEN           N/A     50  30  46 SW12      30.21F
$$

COZ006>008-011-222200-
...WEST CENTRAL VALLEYS...

CITY           SKY/WX    TMP DP  RH WIND       PRES   REMARKS
GRAND JUNCTION FAIR      72  28  19 W13G18    30.13F
MONTROSE       FAIR      67  28  23 N8        30.19F
EAGLE          PTSUNNY   59  30  33 CALM      30.19F
RIFLE          FAIR      71  24  17 NW18G26   30.14F
DELTA          FAIR      75  26  15 W20G30    30.14F
NUCLA          FAIR      70  28  21 W13G23    30.21F
$$

COZ017>023-064>068-222200-
...SOUTHWEST COLORADO...

CITY           SKY/WX    TMP DP  RH WIND       PRES   REMARKS
DURANGO        FAIR      70  28  21 W15G24    30.11F
CORTEZ         FAIR      70  28  21 N17G24    30.16F
PAGOSA SPRINGS FAIR      66  21  18 SW14G22   30.16F
TELLURIDE      PTSUNNY   54  25  31 N6        30.32S
WOLF CREEK PAS FAIR      41  18  38 W7        30.41F
$$

COZ009-010-012-014-032>034-037-058>063-222200-
...CENTRAL COLORADO...

CITY           SKY/WX    TMP DP  RH WIND       PRES   REMARKS
ASPEN          PTSUNNY   54  29  38 N10       30.21F
BUENA VISTA    PTSUNNY   60  22  23 W15G22    30.19F
COPPER MTN     CLOUDY    37  25  60 NW16G22   30.35R
BERTHOUD PASS  LGT SNOW  23  14  68 NW39G46   30.30F WCI   3
COTTONWOOD PAS PTSUNNY   46  21  36 CALM      30.28F
GUNNISON       FAIR      58  24  27 NW12G17   30.19F
KREMMLING      CLOUDY    55  32  41 N7        30.21F
LEADVILLE      PTSUNNY   45  25  45 NW14      30.27F
MONARCH PASS   CLOUDY    37  23  56 W26       30.46F
SALIDA         PTSUNNY   65  23  20 N14       30.23F
SUNLIGHT       CLOUDY    39  21  48 W9G21     30.38F
WILKERSON PASS CLOUDY    37  27  65 W5        30.33F
$$

COZ069>075-222200-
...SAN LUIS VALLEY/SANGRE DE CRISTO MOUNTAINS...

CITY           SKY/WX    TMP DP  RH WIND       PRES   REMARKS
ALAMOSA        FAIR      64  26  23 VRB7G16   30.12F
DEL NORTE      PTSUNNY   62  24  23 NW6       30.15F
LA VETA PASS   PTSUNNY   41  36  81 N7        30.38F
SAGUACHE       FAIR      64  25  22 NW24G32   30.16F
$$

COZ035-036-038>040-222200-
...NORTHERN COLORADO FRONT RANGE...

CITY           SKY/WX    TMP DP  RH WIND       PRES   REMARKS
DENVER INTL AP PTSUNNY   66  31  27 SW5       30.06F
DMNS CITY PARK   N/A     66  30  26 NW7G18    30.05F
AURORA         PTSUNNY   64  27  24 S5        30.08F
FRONT RANGE AP PTSUNNY   66  34  30 W10G165   30.08F
ERIE MUNI ARPT PTSUNNY   66  27  23 W6        30.05F
BOULDER MUN AP PTSUNNY   64  32  29 W16       30.06S
CENTENNIAL     PTSUNNY   62  27  26 CALM      30.09F
BROOMFIELD     PTSUNNY   66  28  24 W12G23    30.08F
FORT COLLINS   FAIR      63  33  32 NW14      30.07R
LONGMONT       CLOUDY    67  31  25 N9        30.07S
$$

COZ041-046-047-076>085-087-088-222200-
...PIKES PEAK/PALMER DIVIDE AND SOUTHERN FOOTHILLS...

CITY           SKY/WX    TMP DP  RH WIND       PRES   REMARKS
COLO. SPRINGS  FAIR      64  24  21 CALM      30.11F
A. F. ACADEMY  CLOUDY    58  25  27 W6        30.12F
SCHRIEVER AFB  FAIR      62  28  27 NW8       30.12F
CHEYENNE MTN   PTSUNNY   57  26  29 SE5       30.09F
ELLICOTT       FAIR     N/A N/A N/A VRB7G16   30.10F
FALCON         FAIR      61  24  24 N8        30.15F
FORT CARSON    PTSUNNY   63  28  26 CALM      30.10F
LIMON          PTSUNNY   64  34  32 NW10G18   30.07F
MONUMENT HILL  FAIR      55  27  33 NW9G17    30.16F
CANON CITY     NOT AVBL
WALSENBURG     NOT AVBL
TRINIDAD       FAIR      64  37  36 NE12      30.12F
$$

COZ042>045-048>051-090-091-222200-
...NORTHEAST COLORADO...

CITY           SKY/WX    TMP DP  RH WIND       PRES   REMARKS
GREELEY ARPT   LGT RAIN  58  43  57 N25G33    30.08R
AKRON          CLOUDY    60  41  49 E9        30.03F
BURLINGTON     FAIR      70  38  31 W14       30.02F
WRAY           RAIN      61  43  51 NW7       30.01F
YUMA           MOCLDY    63  27  25 N12       30.03F
STERLING       PTSUNNY   63  41  45 N24G30    30.04R
HOLYOKE        NOT AVBL
FORT MORGAN    CLOUDY    60  38  44 N22G35    30.07R
$$

COZ086-089-092>099-222200-
...SOUTHEAST COLORADO...

CITY           SKY/WX    TMP DP  RH WIND       PRES   REMARKS
PUEBLO         PTSUNNY   68  37  32 SW5       30.06F
LA JUNTA       FAIR      68  43  40 VRB5      30.05F
LAMAR          LGT RAIN  65  46  50 W13       30.02F
SPRINGFIELD      N/A     64  43  46 N16G23    30.07F
$$




USA.gov is the U.S. government's official web portal to all federal, state and local government web resources and services.